Location: Davayat
(45.9471°N, 3.1105°E)
Time: 14:22:26
(UTC+00:00)

Cosmos 1461 - Pass Details

Date: 01 December 2020
Orbit: 501 x 663 km, 65.0° (Epoch: 27 January)

Event Time Altitude Azimuth Distance (km) Brightness Sun altitude
Rises 17:56:29 0° 184° (S) 2,872 6.7 -18.9°
Reaches altitude 10° 17:58:56 10° 172° (S) 1,997 5.7 -19.3°
Enters shadow 18:01:50 26° 136° (SE) 1,266 4.3 -19.8°
